Terminal Aerodrome Forecast
Issued by NWS Jackson, KY

Home | Current Version | Previous Version | Text Only | Print | Product List | Glossary On
Versions: 1 2 3 4 5 6 7 8 9 10 11 12 13 14 15 16 17 18 19 20 21 22 23 24
000
FTUS43 KJKL 050527
TAFLOZ
TAF
KLOZ 050527Z 0506/0606 36009KT 5SM -RA BR OVC007
     FM050700 35008KT 1/2SM SN SCT006 OVC012
     FM051500 05008KT 2SM -SN BR OVC010
     FM052100 05007KT P6SM BKN020=

USA.gov is the U.S. government's official web portal to all federal, state and local government web resources and services.